This is the latest recevied weather packets stored in our database for station/object K4DFD-13. If no packets are shown the sender has not sent any weather packets the latest 1 day(s).
| Time | Temp. | Humidity | Pressure | Rain* | Wind** | Luminosity | Snow |
|---|---|---|---|---|---|---|---|
| 1778017603 | 22.78° C | 39% | 1013.1 hPa | 0 mm | 2.68 m/s, 185° | - | - |
| 1778017299 | 22.78° C | 39% | 1013.1 hPa | 0 mm | 2.68 m/s, 194° | - | - |
| 1778016999 | 22.78° C | 39% | 1013 hPa | 0 mm | 1.79 m/s, 172° | - | - |
| 1778016716 | 22.78° C | 40% | 1013.2 hPa | 0 mm | 3.13 m/s, 186° | - | - |
| 1778016418 | 22.78° C | 39% | 1013.3 hPa | 0 mm | 4.02 m/s, 177° | - | - |
| 1778016099 | 23.33° C | 41% | 1013.3 hPa | 0 mm | 1.79 m/s, 187° | - | - |
| 1778015797 | 23.33° C | 40% | 1013.1 hPa | 0 mm | 2.68 m/s, 197° | - | - |
| 1778015497 | 23.33° C | 39% | 1013 hPa | 0 mm | 1.79 m/s, 198° | - | - |
| 1778015216 | 23.33° C | 40% | 1013.1 hPa | 0 mm | 2.68 m/s, 183° | - | - |
| 1778014915 | 23.33° C | 40% | 1013.2 hPa | 0 mm | 2.24 m/s, 168° | - | - |
| 1778014615 | 23.33° C | 39% | 1013.2 hPa | 0 mm | 4.02 m/s, 193° | - | - |
| 1778014294 | 23.89° C | 38% | 1013.2 hPa | 0 mm | 1.79 m/s, 179° | - | - |
| 1778014003 | 23.89° C | 38% | 1013 hPa | 0 mm | 3.58 m/s, 187° | - | - |
| 1778013694 | 23.89° C | 38% | 1013 hPa | 0 mm | 2.68 m/s, 172° | - | - |
| 1778013400 | 23.33° C | 37% | 1013.1 hPa | 0 mm | 2.68 m/s, 178° | - | - |
| 1778013113 | 23.33° C | 37% | 1013.3 hPa | 0 mm | 2.24 m/s, 170° | - | - |
| 1778012792 | 23.89° C | 37% | 1013.2 hPa | 0 mm | 3.58 m/s, 176° | - | - |
| 1778012512 | 23.89° C | 36% | 1013.2 hPa | 0 mm | 3.13 m/s, 171° | - | - |
| 1778012191 | 23.33° C | 37% | 1013.3 hPa | 0 mm | 3.13 m/s, 212° | - | - |
| 1778011891 | 23.33° C | 37% | 1013.2 hPa | 0 mm | 2.24 m/s, 199° | - | - |
| 1778011590 | 23.33° C | 37% | 1013.5 hPa | 0 mm | 2.68 m/s, 184° | - | - |
| 1778011290 | 23.33° C | 36% | 1013.5 hPa | 0 mm | 3.58 m/s, 183° | - | - |
| 1778010990 | 23.33° C | 36% | 1013.6 hPa | 0 mm | 2.68 m/s, 192° | - | - |
| 1778010689 | 23.33° C | 35% | 1013.8 hPa | 0 mm | 3.13 m/s, 187° | - | - |
| 1778010389 | 23.89° C | 35% | 1013.7 hPa | 0 mm | 2.68 m/s, 194° | - | - |
* Rain latest hour (hover to see other rain measurements)
** Current wind speed in m/s (hover to see current wind gust speed)